EN

Hourly Weather Abrucena

Today, 1 December, Tuesday

Time Temperature Precipitation Wind Pressure Humidity
00:00 +3°C° 0 mm 1 mps 616 mmHg 75%
01:00 +3°C° 0 mm 1 mps 615 mmHg 73%
02:00 +3°C° 0 mm 1 mps 615 mmHg 71%
03:00 +3°C° 0 mm 1 mps 615 mmHg 69%
04:00 +2°C° 0 mm 1 mps 615 mmHg 69%
05:00 +2°C° 0 mm 1 mps 615 mmHg 69%
06:00 +2°C° 0 mm 1 mps 615 mmHg 69%
07:00 +4°C° 0 mm 1 mps 616 mmHg 66%
08:00 +5°C° 0 mm 1 mps 616 mmHg 63%
09:00 +6°C° 0 mm 1 mps 617 mmHg 60%
10:00 +7°C° 0 mm 1 mps 617 mmHg 56%
11:00 +8°C° 0 mm 1 mps 617 mmHg 53%
12:00 +8°C° 0 mm 1 mps 617 mmHg 49%
13:00 +9°C° 0 mm 1 mps 617 mmHg 51%
14:00 +8°C° 0 mm 2 mps 616 mmHg 53%
15:00 +8°C° 0 mm 2 mps 616 mmHg 54%
16:00 +6°C° 0 mm 2 mps 615 mmHg 61%
17:00 +5°C° 0 mm 2 mps 615 mmHg 68%
18:00 +4°C° 0 mm 2 mps 614 mmHg 75%
19:00 +4°C° 0 mm 2 mps 614 mmHg 74%
20:00 +3°C° 0 mm 2 mps 614 mmHg 74%
21:00 +3°C° 0 mm 2 mps 614 mmHg 73%
22:00 +3°C° 0 mm 2 mps 613 mmHg 73%
23:00 +2°C° 0 mm 2 mps 613 mmHg 73%

Tomorrow, 2 December, Wednesday

Time Temperature Precipitation Wind Pressure Humidity
00:00 +2°C° 0 mm 2 mps 613 mmHg 73%
01:00 +2°C° 0 mm 2 mps 612 mmHg 70%
02:00 +2°C° 0 mm 2 mps 612 mmHg 66%
03:00 +1°C° 0 mm 2 mps 612 mmHg 63%
04:00 +1°C° 0 mm 2 mps 611 mmHg 63%
05:00 +1°C° 0 mm 2 mps 611 mmHg 64%
06:00 -1°C° 0 mm 2 mps 611 mmHg 65%
07:00 +2°C° 0 mm 2 mps 611 mmHg 59%
08:00 +3°C° 0 mm 2 mps 612 mmHg 54%
09:00 +4°C° 0 mm 2 mps 612 mmHg 48%
10:00 +5°C° 0 mm 2 mps 612 mmHg 45%
11:00 +6°C° 0 mm 2 mps 612 mmHg 42%
12:00 +7°C° 0 mm 2 mps 613 mmHg 38%
13:00 +7°C° 0 mm 2 mps 612 mmHg 42%
14:00 +7°C° 0 mm 2 mps 612 mmHg 45%
15:00 +6°C° 0 mm 2 mps 612 mmHg 48%
16:00 +5°C° 0 mm 2 mps 611 mmHg 55%
17:00 +4°C° 0 mm 2 mps 611 mmHg 62%
18:00 +3°C° 0 mm 2 mps 611 mmHg 68%
19:00 +2°C° 0 mm 2 mps 611 mmHg 70%
20:00 +3°C° 0 mm 1 mps 611 mmHg 71%
21:00 +2°C° 0 mm 1 mps 611 mmHg 73%
22:00 +2°C° 0 mm 1 mps 611 mmHg 73%
23:00 +1°C° 0 mm 1 mps 611 mmHg 73%

Day after tomorrow, 3 December, Thursday

Time Temperature Precipitation Wind Pressure Humidity
00:00 +1°C° 0 mm 1 mps 611 mmHg 74%
01:00 +1°C° 0 mm 1 mps 611 mmHg 74%
02:00 0°C° 0 mm 1 mps 611 mmHg 74%
03:00 0°C° 0 mm 1 mps 610 mmHg 75%
04:00 0°C° 0 mm 1 mps 610 mmHg 76%
05:00 0°C° 0 mm 1 mps 610 mmHg 77%
06:00 -1°C° 0 mm 1 mps 610 mmHg 77%
07:00 0°C° 0 mm 1 mps 610 mmHg 75%
08:00 +1°C° 0 mm 1 mps 611 mmHg 72%
09:00 +2°C° 0 mm 1 mps 611 mmHg 70%
10:00 +2°C° 0 mm 2 mps 611 mmHg 65%
11:00 +3°C° 0 mm 2 mps 611 mmHg 60%
12:00 +4°C° 0 mm 2 mps 611 mmHg 55%
13:00 +3°C° 0 mm 3 mps 611 mmHg 55%
14:00 +4°C° 0 mm 3 mps 610 mmHg 55%
15:00 +4°C° 0 mm 4 mps 610 mmHg 54%
16:00 +3°C° 0 mm 3 mps 609 mmHg 61%
17:00 +1°C° 0 mm 3 mps 609 mmHg 68%
18:00 0°C° 0 mm 3 mps 608 mmHg 75%
19:00 0°C° 0 mm 3 mps 608 mmHg 72%
20:00 0°C° 0 mm 3 mps 608 mmHg 70%
21:00 0°C° 0 mm 3 mps 608 mmHg 67%
22:00 -1°C° 0 mm 3 mps 607 mmHg 68%
23:00 -2°C° 0 mm 4 mps 607 mmHg 69%

4 December, Friday

Time Temperature Precipitation Wind Pressure Humidity
00:00 -2°C° 0 mm 4 mps 607 mmHg 70%
01:00 -2°C° 0 mm 4 mps 606 mmHg 66%
02:00 -2°C° 0 mm 4 mps 605 mmHg 63%
03:00 -2°C° 0 mm 5 mps 605 mmHg 59%
04:00 -4°C° 0 mm 5 mps 605 mmHg 64%
05:00 -4°C° 0 mm 5 mps 604 mmHg 69%
06:00 -4°C° 0 mm 6 mps 604 mmHg 74%
07:00 -4°C° 0 mm 6 mps 604 mmHg 72%
08:00 -3°C° 0 mm 7 mps 604 mmHg 71%
09:00 -2°C° 0 mm 7 mps 604 mmHg 70%
10:00 -2°C° 0.1 mm 7 mps 604 mmHg 68%
11:00 -1°C° 0.1 mm 8 mps 604 mmHg 67%
12:00 0°C° 0.1 mm 8 mps 603 mmHg 65%
13:00 -1°C° 0.4 mm 8 mps 603 mmHg 71%
14:00 -1°C° 0.4 mm 8 mps 602 mmHg 77%
15:00 -2°C° 0.4 mm 7 mps 601 mmHg 82%
16:00 -3°C° 1.8 mm 7 mps 601 mmHg 84%
17:00 -4°C° 1.8 mm 7 mps 601 mmHg 85%
18:00 -6°C° 1.8 mm 7 mps 601 mmHg 87%
19:00 -7°C° 0.4 mm 7 mps 601 mmHg 85%
20:00 -7°C° 0.4 mm 7 mps 601 mmHg 82%
21:00 -8°C° 0.4 mm 6 mps 601 mmHg 80%
22:00 -8°C° 0.1 mm 6 mps 601 mmHg 80%
23:00 -9°C° 0.1 mm 6 mps 601 mmHg 81%

5 December, Saturday

Time Temperature Precipitation Wind Pressure Humidity
00:00 -9°C° 0.1 mm 6 mps 601 mmHg 82%
01:00 -9°C° 0 mm 6 mps 601 mmHg 81%
02:00 -10°C° 0 mm 5 mps 601 mmHg 81%
03:00 -10°C° 0 mm 5 mps 601 mmHg 80%
04:00 -10°C° 0.1 mm 5 mps 601 mmHg 81%
05:00 -10°C° 0.1 mm 5 mps 602 mmHg 81%
06:00 -9°C° 0.1 mm 4 mps 602 mmHg 82%
07:00 -8°C° 0.1 mm 5 mps 602 mmHg 78%
08:00 -7°C° 0.1 mm 5 mps 603 mmHg 73%
09:00 -7°C° 0.1 mm 5 mps 604 mmHg 69%
10:00 -6°C° 0 mm 6 mps 604 mmHg 66%
11:00 -7°C° 0 mm 7 mps 605 mmHg 62%
12:00 -6°C° 0 mm 7 mps 605 mmHg 59%
13:00 -6°C° 0 mm 7 mps 605 mmHg 60%
14:00 -6°C° 0 mm 7 mps 605 mmHg 62%
15:00 -5°C° 0 mm 6 mps 605 mmHg 63%
16:00 -6°C° 0 mm 6 mps 605 mmHg 67%
17:00 -7°C° 0 mm 5 mps 605 mmHg 72%
18:00 -8°C° 0 mm 5 mps 605 mmHg 76%
19:00 -8°C° 0 mm 5 mps 606 mmHg 76%
20:00 -8°C° 0 mm 5 mps 606 mmHg 76%
21:00 -8°C° 0 mm 5 mps 606 mmHg 76%
22:00 -8°C° 0 mm 4 mps 607 mmHg 77%
23:00 -8°C° 0 mm 4 mps 607 mmHg 78%

6 December, Sunday

Time Temperature Precipitation Wind Pressure Humidity
00:00 -9°C° 0 mm 4 mps 607 mmHg 79%
01:00 -9°C° 0 mm 4 mps 607 mmHg 77%
02:00 -9°C° 0 mm 4 mps 606 mmHg 76%
03:00 -9°C° 0 mm 4 mps 606 mmHg 74%
04:00 -9°C° 0 mm 4 mps 606 mmHg 72%
05:00 -9°C° 0 mm 4 mps 607 mmHg 69%
06:00 -8°C° 0 mm 4 mps 607 mmHg 66%
07:00 -8°C° 0 mm 4 mps 607 mmHg 67%
08:00 -7°C° 0 mm 5 mps 608 mmHg 68%
09:00 -6°C° 0 mm 5 mps 609 mmHg 69%
10:00 -5°C° 0 mm 5 mps 609 mmHg 68%
11:00 -4°C° 0 mm 5 mps 610 mmHg 67%
12:00 -4°C° 0 mm 5 mps 610 mmHg 66%
13:00 -4°C° 0 mm 5 mps 610 mmHg 67%
14:00 -3°C° 0 mm 4 mps 609 mmHg 68%
15:00 -3°C° 0 mm 4 mps 609 mmHg 69%
16:00 -3°C° 0 mm 4 mps 609 mmHg 72%
17:00 -4°C° 0 mm 3 mps 609 mmHg 76%
18:00 -4°C° 0 mm 3 mps 609 mmHg 79%
19:00 -4°C° 0 mm 3 mps 609 mmHg 78%
20:00 -4°C° 0 mm 3 mps 609 mmHg 77%
21:00 -4°C° 0 mm 3 mps 609 mmHg 77%
22:00 -4°C° 0 mm 3 mps 609 mmHg 78%
23:00 -4°C° 0 mm 3 mps 609 mmHg 79%
Show more